Location: Newark
(10.3333°N, 37.7167°E)
Time: 11:21:44
(UTC+00:00)

Hubble Space Telescope - Visible Passes

Search period start: 26 January 2020 00:00
Search period end: 05 February 2020 00:00
Orbit: 536 x 540 km, 28.5° (Epoch: 25 January)

Date Brightness Start Highest point End Pass type
(mag) Time Alt. Az. Time Alt. Az. Time Alt. Az.
26 Jan 3.9 01:24:57 13° ESE 01:24:57 13° ESE 01:25:45 10° ESE visible
26 Jan 0.7 03:00:21 12° WSW 03:04:10 81° NNW 03:08:17 10° ENE visible
27 Jan 0.8 02:51:20 24° W 02:53:33 58° NNW 02:57:37 10° NE visible
28 Jan 1.2 02:42:09 37° WNW 02:42:58 41° NNW 02:46:53 10° NE visible
29 Jan 1.8 02:32:48 30° NNW 02:32:48 30° NNW 02:36:05 10° NE visible
30 Jan 2.6 02:23:18 20° N 02:23:18 20° N 02:25:13 10° NNE visible
31 Jan 3.2 02:13:40 13° NNE 02:13:40 13° NNE 02:14:18 10° NNE visible
